#timestamp,LO_Frequency,Hit,StdDev 
1568502015.2,286047000.6,N
1568502035.0,286047000.0,N
1568502035.9,286047000.0,N
1568502055.8,286046999.8,N
1568502075.6,286047000.5,N
1568502095.4,286047000.8,N
1568502115.3,286046998.7,N
1568502135.1,286046999.4,N
1568502155.9,286046998.4,N
1568502175.7,286046999.0,N
1568502195.5,286046996.9,N
1568502215.4,286046998.9,N
1568502235.2,286046997.0,N
1568502255.9,286046997.0,N
1568502275.7,286046999.6,N
1568502295.6,286046999.2,N
1568502315.4,286046999.1,N
1568502335.3,286046999.5,N
1568502355.1,286046999.1,N
1568502375.8,286046996.5,N
1568502395.7,286046997.1,N
1568502415.5,286046997.0,N
1568502435.4,286046997.0,N
1568502455.2,286046997.1,N
1568502475.0,286046999.2,N
1568502475.9,286046999.2,N
1568502495.8,286046998.9,N
1568502515.6,286046996.5,N
1568502535.5,286046997.2,N
1568502555.3,286046999.6,N
1568502575.1,286046996.8,N
1568502595.9,286046997.6,N
1568502615.7,286046996.1,Y
1568502635.6,286046995.0,P
1568502655.4,286046995.5,N
1568502675.2,286046997.4,N
1568502695.1,286046997.1,N
1568502696.0,286046997.1,N
1568502715.8,286046997.3,N
1568502735.6,286046997.1,N
1568502755.5,286046996.6,Y
1568502775.3,286047002.8,P
1568502795.2,286046999.7,N
1568502815.0,286047002.6,N
1568502815.9,286047002.6,N
1568502835.8,286047002.8,N
1568502855.6,286046999.7,N
1568502875.4,286047002.7,N
1568502895.3,286046999.8,N
1568502915.1,286047000.2,N
1568502935.9,286047000.3,N
1568502955.7,286047002.8,N
1568502975.5,286046999.8,N
1568502995.4,286047002.4,N
1568503015.2,286047002.6,N
1568503035.0,286047000.5,N
1568503035.9,286047000.5,N
1568503055.8,286047000.7,N
1568503075.6,286047001.2,N
1568503095.5,286047001.2,N
1568503115.3,286047000.8,N
1568503135.2,286046998.5,N
1568503155.0,286047001.1,N
1568503155.9,286047001.1,N
1568503175.8,286047000.3,N
1568503195.6,286047000.7,N
1568503215.4,286046998.3,N
1568503235.3,286046998.8,N
1568503255.1,286047000.2,N
1568503275.8,286047000.4,N
1568503295.7,286047000.3,N
1568503315.5,286047000.5,N
1568503335.4,286047000.7,N
1568503355.2,286047000.4,N
1568503375.0,286046999.9,N
1568503375.9,286046999.9,N
1568503395.8,286047000.4,N
1568503415.6,286047000.3,N
1568503435.5,286047001.0,N
1568503455.3,286046998.9,N
1568503475.1,286046998.1,N
1568503495.9,286047001.1,N
1568503515.7,286047000.7,N
1568503535.6,286046998.3,N
1568503555.4,286046999.6,N
1568503575.2,286047001.2,N
1568503595.1,286046999.9,N
1568503596.0,286046999.9,N
1568503615.8,286047002.4,N
1568503635.6,286047002.5,N
1568503655.5,286047001.8,N
1568503675.3,286046999.8,N
1568503695.2,286046999.8,N
1568503715.9,286047002.0,N
1568503735.7,286047002.0,N
1568503755.6,286046999.8,N
1568503775.4,286047000.4,N
1568503795.3,286047000.8,N
1568503815.1,286047000.7,N
1568503816.0,286047000.7,N
1568503835.8,286047000.0,N
1568503855.7,286047000.0,N
1568503875.5,286047000.2,N
1568503895.4,286047002.7,N
1568503915.2,286047000.4,N
1568503935.0,286047000.7,N
1568503935.9,286047000.7,N
1568503955.8,286047000.5,N
1568503975.6,286047001.1,N
1568503995.4,286047000.5,N
1568504015.3,286047002.6,N
1568504035.1,286047000.1,N
1568504055.9,286046999.7,N
1568504075.7,286046999.8,N
1568504095.5,286047000.0,N
1568504115.4,286047000.9,N
1568504135.2,286047000.3,N
1568504155.0,286047000.9,N
1568504156.0,286047000.9,N
1568504175.8,286047000.8,N
1568504195.6,286047000.9,N
1568504215.5,286047002.5,Y
1568504235.3,286047000.0,P
1568504255.1,286046998.3,P
1568504275.9,286047000.6,N
1568504295.7,286047000.7,N
1568504315.6,286047002.4,N
1568504335.4,286046998.3,N
1568504355.2,286046996.6,N
1568504375.1,286046996.7,N
1568504376.0,286046996.7,N
1568504395.8,286046996.7,N
1568504415.7,286046998.8,N
1568504435.5,286046998.8,N
1568504455.3,286046999.9,N
1568504475.2,286047000.0,N
1568504495.0,286046998.3,N
1568504495.9,286046998.3,N
1568504515.7,286047001.1,N
1568504535.6,286046999.8,N
1568504555.4,286046999.9,N
1568504575.3,286046998.5,N
1568504595.1,286047001.2,N
1568504615.8,286047000.0,N
1568504635.7,286047000.1,N
1568504655.5,286047002.7,N
1568504675.4,286047002.3,N
1568504695.2,286046999.8,N
1568504715.0,286046999.8,N
1568504715.9,286046999.8,N
1568504735.8,286047002.6,N
1568504755.6,286047001.1,N
1568504775.5,286046999.9,N
1568504795.3,286046999.7,N
1568504815.1,286047002.6,N
1568504835.9,286047002.1,N
1568504855.7,286047000.7,N
1568504875.5,286047002.1,N
1568504895.4,286047000.2,N
1568504915.2,286046999.9,N
1568504935.1,286047002.1,N
1568504936.0,286047002.1,N
1568504955.8,286047001.7,N
1568504975.6,286047001.3,N
1568504995.5,286047003.8,N
1568505015.3,286047001.7,N
1568505035.2,286047002.3,N
1568505055.9,286047002.8,N
1568505075.7,286047002.3,N
1568505095.6,286046999.7,N
1568505115.4,286047004.4,Y
1568505135.3,286047000.4,P
1568505155.1,286047000.9,N
1568505156.0,286047000.9,N
1568505175.8,286046998.1,Y
1568505195.7,286046999.4,P
1568505215.5,286046998.3,N
1568505235.4,286046998.5,N
1568505255.2,286046999.6,N
1568505275.0,286046999.0,N
1568505275.9,286046999.0,N
1568505295.8,286046999.5,N
1568505315.6,286046998.9,N
1568505335.4,286046998.2,N
1568505355.3,286047001.1,N
1568505375.1,286047000.7,N
1568505395.9,286046998.3,N
1568505415.7,286046998.5,N
1568505435.5,286047000.2,N
1568505455.4,286047002.3,N
1568505475.2,286047011.9,Y
1568505495.1,286047004.0,P
1568505496.0,286047004.0,N
1568505515.8,286047004.2,N
1568505535.6,286047004.0,N
1568505555.5,286047001.8,N
1568505575.3,286047002.9,N
1568505595.1,286047003.5,N
